Location: Innerarity Island Observatory
(30.3139°N, 87.4867°W)
Time: 16:55:42
(UTC-05:00)

Amateur Radio Satellites - All Passes

Search period start: 30 September 2014 16:25
Search period end: 01 October 2014 16:25
Location: Innerarity Island Observatory, 30.3139°N, 87.4867°W

Satellite Date Start Highest point End Downlink Frequencies (MHz)
Time Altitude Azimuth
MaSat-1 30 Sep 16:36:37 16:38:30 16° 257° (WSW) 16:40:15 437.345 MHz
KITSAT 1 30 Sep 16:41:37 16:49:32 63° 111° (ESE) 16:57:29 435.175 FM
Uosat F 30 Sep 16:59:59 17:04:45 46° 260° (W) 17:09:34 435.120 FM
OPAL 30 Sep 17:11:42 17:16:19 35° 100° (E) 17:20:52 ?
Oscar 10/S400 30 Sep 17:26:25 17:45:05 76° 166° (SSE) 18:45:18 145.825 - 145.975 CW/USB, Beacon 145.810 USB
AO-7 30 Sep 17:39:00 17:45:54 29° 261° (W) 17:52:51 29.400 - 29.500 MHz
JAS-2 30 Sep 17:59:17 18:04:27 90° 240° (WSW) 18:09:45 435.800 - 435.900 CW/SSB, 435.910 FM
Hamsat 30 Sep 18:12:16 18:16:36 71° 259° (W) 18:20:55 145.90 MHz
KITSAT 1 30 Sep 18:39:01 18:45:23 25° 308° (NW) 18:51:47 435.175 FM
OPAL 30 Sep 18:51:13 18:54:54 21° 294° (WNW) 18:58:33 ?
PANSAT 30 Sep 18:57:41 19:00:55 25° 160° (SSE) 19:04:08 not established
Sapphire 30 Sep 19:03:27 19:08:38 45° 62° (ENE) 19:13:48 437.095 MHz 1200 baud AX-25 AFSK
SO-50 30 Sep 19:09:25 19:13:51 89° 117° (ESE) 19:18:24 436.795 FM
SO-67 30 Sep 19:11:39 19:15:03 67° 78° (ENE) 19:18:29 435.3500 MHz FM
PCSat 30 Sep 19:28:55 19:34:22 87° 66° (ENE) 19:39:46 145.825 MHz
UOSAT-12 30 Sep 19:42:34 19:44:31 13° 107° (ESE) 19:46:30 437.025 FM, 437.400 FM
STRAND 1 30 Sep 19:50:45 19:55:53 71° 285° (WNW) 20:01:00 ?
ISS 30 Sep 20:27:58 20:29:16 12° 125° (SE) 20:30:33 145.800 FM
HO-68 30 Sep 20:33:53 20:40:38 48° 70° (ENE) 20:47:25 435.675 MHz FM
PANSAT 30 Sep 20:37:01 20:40:49 57° 172° (S) 20:44:36 not established
Sapphire 30 Sep 20:48:05 20:51:38 18° 255° (WSW) 20:55:10 437.095 MHz 1200 baud AX-25 AFSK
UKube-1 30 Sep 20:58:10 21:01:33 23° 71° (ENE) 21:04:56 145.840 MHz, 145.915 MHz
UOSAT-12 30 Sep 21:19:43 21:24:10 49° 300° (WNW) 21:28:42 437.025 FM, 437.400 FM
ZACube-1 30 Sep 21:37:21 21:40:35 20° 70° (ENE) 21:43:51 437.345 MHz
ISS 30 Sep 22:02:29 22:05:38 40° 317° (NW) 22:08:48 145.800 FM
Oscar 11 30 Sep 22:04:00 22:08:21 73° 259° (WSW) 22:12:43 145.825 FM, Beacon 2401.500 USB
PANSAT 30 Sep 22:17:03 22:20:52 63° 185° (S) 22:24:41 not established
HO-68 30 Sep 22:22:48 22:28:26 25° 263° (W) 22:34:07 435.675 MHz FM
FUNcube-1 30 Sep 22:27:01 22:31:29 77° 77° (ENE) 22:36:04 145.950 - 145.970 MHz USB
UKube-1 30 Sep 22:34:12 22:37:36 22° 263° (W) 22:41:00 145.840 MHz, 145.915 MHz
Saudisat 1A 30 Sep 22:53:17 22:56:53 24° 56° (NE) 23:00:28 436.775 MHz
AO-40 30 Sep 23:01:32 00:39:27 29° 230° (SW) 04:11:50 Beacon 2401.320
ZACube-1 30 Sep 23:12:48 23:16:43 29° 263° (W) 23:20:43 437.345 MHz
PANSAT 30 Sep 23:57:21 00:00:49 32° 197° (SSW) 00:04:17 not established
RS-15 01 Oct 00:05:06 00:08:24 12° 99° (E) 00:11:41 29.354 - 29.394 USB, Beacon 29.352 USB
Saudisat 1A 01 Oct 00:32:45 00:36:20 25° 249° (WSW) 00:39:54 436.775 MHz
KITSAT 1 01 Oct 00:44:46 00:47:18 12° 42° (NE) 00:49:50 435.175 FM
Oscar 19 01 Oct 01:22:38 01:26:11 19° 95° (E) 01:29:41 437.125 CW, 437.150 USB
Oscar 16 01 Oct 02:02:26 02:07:28 53° 101° (E) 02:12:27 437.025 USB, Beacon 2401.1428
RS-15 01 Oct 02:07:54 02:19:01 78° 114° (ESE) 02:29:54 29.354 - 29.394 USB, Beacon 29.352 USB
AO-27 01 Oct 02:11:46 02:15:58 24° 97° (E) 02:20:10 436.795 MHz FM
AO-Echo 01 Oct 02:13:37 02:18:09 32° 98° (E) 02:22:45 ?
JAS-1B 01 Oct 02:33:39 02:39:20 58° 102° (ESE) 02:45:42 435.800 - 435.900 CW/SSB
Gurwin Techsat 1B 01 Oct 02:35:54 02:39:41 20° 95° (E) 02:43:26 435.225 FM
KITSAT 1 01 Oct 02:36:19 02:44:19 63° 62° (ENE) 02:52:16 435.175 FM
Oscar 19 01 Oct 03:00:51 03:05:34 38° 288° (WNW) 03:10:14 437.125 CW, 437.150 USB
TMSAT-1 01 Oct 03:04:03 03:08:33 28° 97° (E) 03:13:01 436.925 FM
ITAMSAT 1 01 Oct 03:11:52 03:17:06 78° 284° (WNW) 03:22:18 435.822 SSB
Uribyol 2 01 Oct 03:12:49 03:18:01 71° 285° (WNW) 03:23:12 436.500 FM
Oscar 16 01 Oct 03:43:42 03:46:18 14° 294° (WNW) 03:48:53 437.025 USB, Beacon 2401.1428
SO-50 01 Oct 03:47:17 03:50:45 19° 53° (NE) 03:54:13 436.795 FM
AO-27 01 Oct 03:50:52 03:55:24 30° 289° (WNW) 03:59:54 436.795 MHz FM
AO-Echo 01 Oct 03:52:46 03:56:41 23° 290° (WNW) 04:00:41 ?
AO-7 01 Oct 03:54:23 04:00:30 22° 97° (E) 04:06:34 29.400 - 29.500 MHz
Gurwin Techsat 1B 01 Oct 04:14:48 04:19:41 38° 288° (WNW) 04:24:33 435.225 FM
OPAL 01 Oct 04:20:57 04:25:36 34° 70° (ENE) 04:30:17 ?
RS-15 01 Oct 04:23:43 04:32:23 26° 314° (NW) 04:41:03 29.354 - 29.394 USB, Beacon 29.352 USB
JAS-1B 01 Oct 04:26:37 04:29:38 15° 294° (WNW) 04:32:46 435.800 - 435.900 CW/SSB
KITSAT 1 01 Oct 04:33:17 04:39:00 22° 256° (WSW) 04:44:43 435.175 FM
ISS 01 Oct 04:36:27 04:38:24 15° 35° (NE) 04:40:21 145.800 FM
MaSat-1 01 Oct 04:36:39 04:40:39 26° 105° (ESE) 04:44:36 437.345 MHz
TMSAT-1 01 Oct 04:43:54 04:48:19 28° 290° (WNW) 04:52:44 436.925 FM
Uosat F 01 Oct 05:13:11 05:18:15 87° 103° (ESE) 05:23:18 435.120 FM
JAS-2 01 Oct 05:13:54 05:18:43 19° 95° (E) 05:23:45 435.800 - 435.900 CW/SSB, 435.910 FM
SO-50 01 Oct 05:26:53 05:31:25 40° 247° (WSW) 05:35:58 436.795 FM
AO-7 01 Oct 05:45:27 05:53:35 63° 290° (WNW) 06:01:43 29.400 - 29.500 MHz
UOSAT-12 01 Oct 05:55:03 05:59:10 29° 56° (ENE) 06:03:12 437.025 FM, 437.400 FM
OPAL 01 Oct 06:00:29 06:04:27 22° 262° (W) 06:08:26 ?
Hamsat 01 Oct 06:04:10 06:07:51 30° 97° (E) 06:11:30 145.90 MHz
ISS 01 Oct 06:12:04 06:15:14 42° 230° (SW) 06:18:23 145.800 FM
MaSat-1 01 Oct 06:12:51 06:17:00 27° 297° (WNW) 06:21:03 437.345 MHz
JAS-2 01 Oct 06:57:01 07:03:50 65° 285° (WNW) 07:11:21 435.800 - 435.900 CW/SSB, 435.910 FM
STRAND 1 01 Oct 07:00:52 07:05:57 89° 259° (W) 07:11:04 ?
UOSAT-12 01 Oct 07:35:29 07:39:06 22° 250° (WSW) 07:42:40 437.025 FM, 437.400 FM
Hamsat 01 Oct 07:41:00 07:43:31 16° 290° (WNW) 07:46:02 145.90 MHz
Sapphire 01 Oct 07:59:29 08:01:44 13° 103° (ESE) 08:03:58 437.095 MHz 1200 baud AX-25 AFSK
SO-67 01 Oct 08:13:38 08:16:53 40° 284° (WNW) 08:20:08 435.3500 MHz FM
PCSat 01 Oct 08:22:40 08:27:03 26° 107° (ESE) 08:31:27 145.825 MHz
RS-15 01 Oct 09:07:24 09:11:29 12° 30° (NNE) 09:15:36 29.354 - 29.394 USB, Beacon 29.352 USB
Sapphire 01 Oct 09:39:13 09:44:32 61° 296° (WNW) 09:49:54 437.095 MHz 1200 baud AX-25 AFSK
HO-68 01 Oct 09:54:52 10:02:06 85° 105° (ESE) 10:09:17 435.675 MHz FM
Oscar 11 01 Oct 09:57:46 10:01:36 31° 98° (E) 10:05:23 145.825 FM, Beacon 2401.500 USB
PCSat 01 Oct 10:05:28 10:10:15 32° 300° (WNW) 10:15:05 145.825 MHz
FUNcube-1 01 Oct 10:22:49 10:26:26 24° 96° (E) 10:29:58 145.950 - 145.970 MHz USB
UKube-1 01 Oct 10:26:58 10:31:21 85° 283° (WNW) 10:35:43 145.840 MHz, 145.915 MHz
ZACube-1 01 Oct 11:07:19 11:11:51 87° 102° (ESE) 11:16:15 437.345 MHz
RS-15 01 Oct 11:16:24 11:27:15 52° 57° (ENE) 11:38:29 29.354 - 29.394 USB, Beacon 29.352 USB
Oscar 11 01 Oct 11:34:46 11:37:29 17° 290° (WNW) 11:40:11 145.825 FM, Beacon 2401.500 USB
HO-68 01 Oct 11:45:20 11:48:51 14° 300° (WNW) 11:52:23 435.675 MHz FM
FUNcube-1 01 Oct 11:59:08 12:02:40 23° 289° (WNW) 12:06:07 145.950 - 145.970 MHz USB
Oscar 19 01 Oct 12:34:40 12:37:46 16° 67° (ENE) 12:40:52 437.125 CW, 437.150 USB
Saudisat 1A 01 Oct 12:54:29 12:57:57 23° 111° (ESE) 13:01:26 436.775 MHz
JAS-1B 01 Oct 13:12:49 13:19:35 33° 71° (ENE) 13:25:25 435.800 - 435.900 CW/SSB
Oscar 16 01 Oct 13:13:43 13:18:36 43° 73° (ENE) 13:23:30 437.025 USB, Beacon 2401.1428
AO-Echo 01 Oct 13:22:07 13:25:35 21° 70° (ENE) 13:29:03 ?
AO-27 01 Oct 13:24:52 13:28:41 21° 68° (ENE) 13:32:31 436.795 MHz FM
RS-15 01 Oct 13:29:13 13:39:12 38° 253° (WSW) 13:49:38 29.354 - 29.394 USB, Beacon 29.352 USB
Gurwin Techsat 1B 01 Oct 13:51:56 13:55:29 18° 68° (ENE) 13:59:01 435.225 FM
Oscar 19 01 Oct 14:11:41 14:16:39 47° 260° (W) 14:21:40 437.125 CW, 437.150 USB
TMSAT-1 01 Oct 14:19:32 14:23:47 25° 70° (ENE) 14:28:02 436.925 FM
ITAMSAT 1 01 Oct 14:24:04 14:29:14 88° 77° (ENE) 14:34:26 435.822 SSB
Uribyol 2 01 Oct 14:24:50 14:30:00 85° 257° (WSW) 14:35:14 436.500 FM
Saudisat 1A 01 Oct 14:33:44 14:37:22 25° 304° (NW) 14:41:02 436.775 MHz
AO-7 01 Oct 14:48:30 14:53:55 20° 59° (ENE) 14:59:20 29.400 - 29.500 MHz
Oscar 16 01 Oct 14:54:49 14:58:04 17° 265° (W) 15:01:19 437.025 USB, Beacon 2401.1428
AO-Echo 01 Oct 15:00:08 15:04:09 28° 262° (W) 15:08:11 ?
JAS-1B 01 Oct 15:02:39 15:10:01 37° 259° (W) 15:16:19 435.800 - 435.900 CW/SSB
AO-27 01 Oct 15:03:14 15:07:55 35° 261° (W) 15:12:37 436.795 MHz FM
KITSAT 1 01 Oct 15:07:28 15:11:12 14° 101° (E) 15:14:55 435.175 FM
Gurwin Techsat 1B 01 Oct 15:30:04 15:35:03 42° 261° (W) 15:40:05 435.225 FM
TMSAT-1 01 Oct 15:58:54 16:03:30 30° 262° (W) 16:08:07 436.925 FM
MaSat-1 01 Oct 16:10:05 16:12:33 23° 255° (WSW) 16:14:47 437.345 MHz
